Wind_Speed
19 19 20 20 20 20 22 23 24 22 21 21 20 20 19 19 18 18 18 17 17 17 16 16 16 17 17 18 19 19 19 19 20 20 20 20 20 20 20 19 19 18 18 18
20 20 21 21 21 22 23 24 24 23 22 21 21 20 19 19 19 19 19 18 18 18 17 17 16 16 17 17 19 19 18 18 18 19 19 18 18 18 18 17 17 17 17 18
22 21 22 22 22 23 23 23 23 22 22 21 21 20 18 19 19 19 19 19 18 17 17 17 16 16 17 17 18 18 18 17 17 18 17 17 18 17 16 16 17 17 17 18
23 23 23 22 22 23 23 22 23 23 22 21 21 20 20 19 18 18 19 19 18 17 16 15 15 15 16 16 16 16 17 17 17 17 16 16 16 16 15 16 16 16 17 18
25 25 24 23 23 23 24 23 23 22 22 21 20 20 19 18 18 18 17 16 15 15 15 14 14 14 15 15 15 15 16 15 15 15 15 14 15 15 15 16 16 16 17 17
25 26 25 25 24 23 24 23 23 23 22 22 21 20 19 19 19 18 17 15 14 14 13 13 13 13 13 14 14 15 15 14 14 14 14 14 14 14 15 16 16 16 16 17
26 26 25 25 25 23 23 23 22 22 21 21 20 20 20 19 18 17 16 14 13 13 12 12 12 12 12 12 13 13 13 13 13 13 13 14 13 14 15 15 16 16 17 18
27 26 25 24 24 23 23 22 20 19 19 19 19 20 20 18 17 16 15 12 11 11 11 11 11 11 11 11 11 12 12 12 12 13 13 13 13 13 14 15 16 16 18 18
27 26 23 23 23 22 22 22 20 19 18 18 18 18 19 18 16 14 12 10 10 10 10 9 9 9 9 10 10 11 11 11 12 12 12 12 12 13 14 16 16 17 18 18
25 23 22 22 22 22 22 21 21 20 18 17 17 16 16 15 13 11 9 9 9 9 8 8 7 8 8 9 9 10 10 11 11 11 11 12 13 14 14 15 17 18 18 18
24 23 23 22 22 22 22 21 20 19 18 16 16 14 13 12 12 11 9 8 8 7 7 7 6 7 8 8 8 8 9 10 10 10 11 12 13 13 14 16 18 18 18 19
23 22 22 21 20 19 19 18 18 17 15 15 14 12 11 10 10 10 9 7 7 6 6 6 6 7 7 7 7 8 9 9 9 10 11 12 13 14 15 16 18 19 20 20
22 21 20 19 19 18 18 17 16 14 13 12 11 10 9 8 9 9 8 7 5 5 5 5 5 6 6 6 6 7 8 9 9 10 11 12 14 15 16 17 19 20 21 21
20 20 19 18 18 17 16 15 13 12 11 10 9 8 8 8 8 8 7 6 5 5 4 4 5 5 5 5 6 7 8 9 9 10 11 13 14 16 16 17 19 20 21 22
19 18 17 17 16 15 14 12 11 11 11 10 9 9 9 8 7 6 5 5 4 4 4 3 3 3 3 4 5 7 8 8 9 10 12 14 15 16 17 18 19 20 22 23
17 16 15 14 13 12 11 10 10 10 11 10 9 9 9 8 7 5 5 4 3 2 2 2 2 2 3 4 5 6 7 9 10 11 12 14 16 16 18 19 20 21 22 23
16 14 13 12 11 10 9 9 9 9 10 10 9 9 8 7 7 6 5 4 3 1 0 1 1 2 3 4 5 6 8 9 10 11 13 14 16 17 18 20 21 22 23 24
15 13 12 11 10 9 8 8 8 9 9 9 9 8 8 7 7 7 6 4 3 1 0 1 2 3 3 4 5 6 8 9 11 13 14 15 16 18 19 21 22 24 24 26
15 14 13 11 10 9 8 8 9 9 10 10 9 9 9 8 8 7 6 4 3 2 1 1 2 3 4 5 6 7 8 10 12 13 14 16 17 19 20 21 23 24 26 27
15 15 13 12 10 10 10 10 10 10 11 10 10 10 9 9 8 7 6 5 4 3 2 2 2 3 4 5 6 7 9 11 12 14 15 16 18 19 21 23 24 26 27 28
15 15 13 12 12 12 11 11 11 11 11 11 11 11 10 10 8 7 6 5 4 3 2 1 2 3 4 5 6 7 9 11 12 14 16 17 19 20 22 24 25 27 28 30
16 15 14 13 13 12 12 12 12 12 12 12 12 11 11 10 9 8 7 6 5 4 3 2 2 3 4 6 7 8 10 11 13 15 16 18 20 21 23 24 26 28 30 31
16 16 15 14 14 14 13 13 13 13 13 13 13 12 11 11 10 9 8 7 6 4 3 2 2 3 4 6 7 8 10 11 13 15 17 18 20 22 23 25 27 29 31 32
17 16 16 16 15 15 14 14 13 13 13 13 14 13 12 11 10 10 9 7 6 5 3 1 2 3 4 5 7 9 10 12 14 16 17 19 21 22 25 27 28 30 31 32
17 17 17 17 17 16 15 14 14 14 14 14 14 14 13 12 11 10 9 7 6 4 2 1 2 3 4 5 7 9 11 13 14 16 18 19 21 23 26 28 29 31 32 33
18 17 18 18 17 17 16 16 15 15 15 15 15 15 14 12 12 11 9 7 6 4 2 0 2 3 5 6 8 10 12 14 15 17 19 21 23 25 27 28 30 31 33 34
19 19 19 18 18 17 17 17 16 16 16 16 15 14 14 13 12 10 9 7 6 4 2 1 2 4 5 7 9 11 12 14 16 18 20 22 24 25 27 29 30 32 33 35
Wind_Direction
289 289 289 290 289 287 286 287 287 290 291 292 290 288 288 290 291 294 295 296 294 294 293 295 296 298 303 307 308 311 313 313 314 314 314 313 314 314 315 316 318 319 321 324
290 290 292 293 290 289 288 289 287 288 290 290 288 285 286 286 288 291 293 294 294 292 291 293 296 299 306 308 309 311 313 314 315 317 317 318 320 321 320 320 321 322 324 325
292 291 292 293 293 293 291 290 287 288 288 284 284 283 284 284 286 287 288 290 293 295 291 291 294 299 305 309 310 313 316 316 318 320 321 321 322 323 323 324 324 325 326 328
294 294 295 297 295 292 288 286 286 287 286 282 282 282 282 284 286 287 287 289 292 295 293 291 294 299 304 308 311 314 316 317 319 320 322 323 325 327 327 326 325 324 325 326
295 295 296 296 296 293 288 284 283 283 282 283 282 282 281 281 285 287 286 286 289 291 291 292 297 302 306 309 312 316 318 319 321 323 324 326 327 329 330 329 326 323 324 326
296 295 297 297 295 292 288 284 283 282 282 282 282 281 277 278 281 283 284 285 285 288 290 293 299 305 306 311 315 318 319 321 325 326 327 327 328 328 330 330 328 328 329 331
293 293 295 296 295 291 288 287 284 284 282 281 281 278 277 279 278 280 281 282 283 285 287 294 300 301 304 312 319 321 323 324 326 328 330 331 330 331 332 334 335 336 335 335
292 293 294 292 289 287 286 285 285 285 283 280 278 275 275 276 276 276 275 276 280 287 288 291 296 299 303 313 321 325 327 328 330 331 331 333 334 337 340 340 340 339 338 336
292 293 292 288 285 283 282 283 284 284 284 279 276 274 273 272 271 271 267 267 275 281 285 292 296 298 307 316 324 328 330 331 335 338 337 338 339 342 343 342 341 339 338 338
291 291 286 283 281 281 282 283 282 283 282 279 274 274 272 268 266 262 259 265 268 277 285 292 297 304 313 319 327 332 336 337 341 344 345 343 342 342 344 345 345 345 345 344
289 287 282 279 280 280 281 282 281 280 279 274 273 270 265 265 257 253 252 254 265 275 285 291 295 307 316 321 328 337 341 345 346 346 347 347 347 345 344 344 346 348 348 348
289 287 285 284 283 280 280 281 279 277 272 268 266 262 261 259 251 247 247 252 262 273 280 286 298 308 315 323 331 341 345 348 347 348 349 350 351 351 350 349 350 349 347 347
285 283 282 283 283 281 279 280 275 271 265 260 257 255 255 252 242 237 242 248 259 273 279 284 300 308 312 320 331 340 344 347 349 351 352 352 352 351 349 348 347 347 347 346
279 279 280 281 280 280 279 276 269 261 251 247 248 246 241 237 230 231 238 242 257 269 275 287 297 303 310 319 333 342 346 349 352 353 352 352 351 350 348 347 347 346 346 345
273 275 276 276 279 279 275 269 260 249 240 240 243 237 231 224 223 223 230 237 250 267 275 289 301 308 318 327 338 346 348 349 352 353 352 351 350 350 349 348 347 346 346 345
266 266 267 271 275 276 271 259 246 237 234 234 229 222 216 216 215 210 214 220 231 252 278 300 317 335 339 340 343 346 348 348 349 351 351 351 351 350 350 349 348 347 346 346
262 260 259 261 265 267 262 249 234 226 223 217 212 207 204 204 200 199 196 196 197 210 284 350 346 344 347 348 350 352 353 353 353 352 352 351 351 351 350 349 347 346 345 345
260 258 257 258 256 253 248 232 219 216 212 203 199 197 196 195 196 195 195 196 196 194 64 24 18 13 7 1 1 1 358 357 356 355 353 351 350 349 348 348 346 346 346 346
250 247 248 248 247 242 231 221 213 207 199 195 194 194 194 193 192 194 197 197 192 178 141 76 47 27 17 12 9 6 1 357 355 354 353 351 349 350 350 349 348 348 347 346
244 239 239 238 237 231 225 217 208 202 198 195 195 194 193 188 189 193 195 192 186 173 148 108 59 35 23 14 8 4 0 358 357 355 354 352 350 350 350 350 350 349 349 348
233 231 232 230 227 224 218 208 199 196 196 195 193 191 191 190 192 190 188 183 177 167 150 119 63 33 19 11 6 3 0 359 358 356 354 352 351 351 351 350 349 349 349 348
225 225 226 223 218 213 209 202 198 197 195 192 190 190 191 191 188 184 180 176 175 168 151 123 59 30 18 13 9 5 3 2 359 356 353 352 352 352 352 351 350 349 348 348
221 222 221 215 210 204 201 200 197 194 192 191 189 189 189 186 183 182 179 177 174 169 157 129 61 27 16 11 8 4 2 360 357 354 352 352 352 352 352 351 350 350 349 349
217 215 211 205 201 197 197 198 196 193 190 189 188 189 187 184 181 180 178 175 171 170 162 128 44 12 5 6 4 359 356 354 353 353 352 352 351 351 351 351 351 351 350 349
209 206 202 199 196 195 194 194 193 191 189 188 188 185 182 181 181 181 180 176 172 171 171 139 14 3 2 2 360 356 353 352 351 351 351 351 351 351 351 351 350 350 350 349
201 199 198 196 194 191 190 189 187 185 184 184 183 181 180 180 181 182 181 181 181 182 189 285 347 358 1 359 355 352 350 350 350 350 350 350 350 350 350 349 349 349 349 349
196 194 193 191 189 187 187 185 183 183 181 180 179 179 180 181 181 181 183 186 191 198 215 276 330 345 350 351 349 347 347 349 349 349 349 349 349 349 349 348 348 349 349 350
Height
5808 5807 5805 5805 5804 5803 5801 5800 5798 5798 5797 5796 5794 5793 5792 5790 5788 5787 5785 5784 5782 5781 5779 5778 5776 5775 5773 5771 5769 5766 5763 5760 5757 5753 5750 5747 5744 5741 5738 5735 5732 5729 5726 5723
5804 5802 5800 5799 5799 5797 5796 5794 5793 5792 5792 5790 5789 5788 5786 5785 5784 5782 5781 5779 5778 5776 5775 5774 5772 5770 5768 5766 5764 5762 5759 5756 5752 5749 5746 5743 5740 5736 5734 5732 5729 5726 5723 5720
5798 5797 5795 5794 5793 5791 5790 5788 5787 5786 5786 5784 5783 5782 5781 5780 5778 5777 5775 5774 5773 5771 5770 5769 5767 5766 5765 5762 5760 5758 5755 5752 5749 5746 5743 5740 5737 5734 5732 5729 5726 5723 5720 5717
5792 5791 5790 5790 5787 5785 5784 5783 5781 5780 5779 5778 5778 5777 5775 5774 5773 5772 5771 5769 5768 5766 5765 5764 5763 5762 5761 5758 5756 5753 5751 5748 5745 5742 5739 5737 5734 5732 5729 5726 5723 5721 5717 5714
5786 5784 5783 5783 5781 5779 5777 5776 5774 5773 5773 5772 5771 5771 5770 5769 5768 5767 5766 5764 5763 5762 5761 5760 5759 5758 5756 5754 5752 5749 5747 5744 5742 5739 5736 5734 5732 5729 5727 5724 5721 5718 5715 5712
5780 5777 5776 5777 5774 5771 5770 5769 5768 5766 5766 5765 5765 5765 5765 5763 5763 5762 5761 5759 5759 5758 5758 5757 5756 5754 5753 5751 5749 5746 5744 5741 5739 5736 5734 5731 5729 5727 5724 5721 5719 5716 5713 5709
5773 5770 5769 5769 5766 5765 5764 5763 5761 5760 5759 5759 5758 5759 5759 5758 5757 5756 5756 5755 5755 5755 5754 5754 5752 5751 5750 5748 5746 5743 5741 5739 5736 5734 5731 5729 5727 5725 5722 5720 5717 5714 5711 5707
5766 5764 5765 5761 5758 5758 5757 5755 5754 5754 5754 5753 5752 5752 5752 5752 5752 5751 5751 5751 5751 5751 5751 5750 5749 5748 5747 5745 5743 5741 5739 5736 5734 5731 5729 5727 5725 5723 5720 5718 5715 5712 5709 5705
5759 5759 5756 5753 5751 5750 5749 5749 5748 5748 5748 5747 5747 5747 5746 5746 5746 5747 5747 5747 5747 5748 5747 5747 5746 5745 5744 5743 5741 5739 5737 5735 5732 5730 5728 5726 5724 5721 5719 5716 5713 5710 5707 5703
5751 5751 5749 5747 5745 5744 5743 5743 5743 5742 5742 5742 5741 5741 5741 5741 5742 5742 5743 5744 5744 5744 5744 5744 5744 5743 5742 5740 5739 5737 5735 5733 5731 5729 5727 5725 5723 5720 5718 5715 5712 5709 5706 5702
5744 5744 5742 5741 5739 5738 5737 5737 5736 5737 5736 5736 5736 5736 5736 5737 5738 5739 5740 5741 5742 5742 5742 5742 5741 5741 5740 5739 5737 5736 5734 5732 5730 5728 5726 5724 5722 5719 5717 5714 5711 5708 5705 5701
5738 5737 5734 5735 5734 5732 5731 5731 5731 5731 5731 5732 5732 5733 5733 5734 5735 5736 5738 5739 5739 5739 5739 5740 5739 5739 5738 5737 5736 5735 5733 5731 5730 5728 5726 5724 5721 5719 5716 5713 5710 5707 5703 5700
5731 5730 5729 5729 5728 5727 5726 5726 5725 5726 5727 5728 5729 5729 5730 5731 5732 5734 5735 5736 5737 5737 5737 5737 5737 5737 5736 5736 5735 5734 5732 5731 5729 5728 5726 5723 5721 5718 5715 5712 5709 5705 5702 5698
5725 5723 5723 5723 5723 5722 5721 5720 5721 5721 5723 5724 5725 5726 5727 5729 5730 5732 5733 5735 5735 5735 5735 5736 5736 5735 5735 5735 5734 5733 5732 5730 5729 5727 5725 5722 5720 5717 5714 5711 5708 5704 5700 5696
5720 5718 5718 5718 5718 5717 5716 5716 5717 5718 5719 5721 5723 5724 5726 5728 5729 5730 5732 5733 5733 5734 5734 5734 5734 5734 5734 5734 5733 5732 5731 5729 5728 5726 5724 5722 5719 5716 5713 5710 5706 5703 5699 5695
5714 5714 5714 5714 5714 5713 5713 5713 5713 5715 5716 5718 5720 5722 5724 5726 5728 5729 5730 5732 5732 5733 5733 5733 5733 5733 5733 5733 5732 5731 5730 5729 5727 5725 5723 5721 5718 5715 5712 5708 5705 5701 5697 5693
5710 5710 5710 5710 5710 5710 5710 5710 5711 5712 5714 5716 5718 5720 5722 5725 5727 5728 5730 5731 5732 5732 5733 5733 5733 5732 5732 5732 5731 5730 5729 5728 5726 5724 5722 5720 5717 5714 5710 5707 5704 5699 5695 5691
5705 5706 5707 5707 5707 5707 5708 5708 5709 5711 5713 5715 5717 5719 5721 5724 5726 5727 5729 5730 5731 5732 5732 5732 5732 5732 5731 5731 5730 5730 5729 5727 5725 5724 5721 5719 5716 5713 5709 5706 5702 5697 5693 5688
5702 5703 5704 5704 5704 5705 5706 5707 5708 5710 5712 5713 5715 5718 5720 5723 5725 5727 5728 5730 5731 5731 5732 5732 5732 5731 5731 5731 5730 5729 5728 5727 5725 5723 5721 5718 5715 5712 5708 5705 5700 5695 5691 5686
5698 5699 5700 5701 5702 5703 5704 5705 5706 5708 5710 5712 5715 5717 5719 5722 5724 5726 5728 5729 5730 5731 5732 5732 5732 5731 5731 5730 5730 5729 5728 5726 5724 5722 5720 5717 5714 5711 5707 5703 5698 5694 5689 5684
5695 5696 5697 5698 5699 5701 5702 5703 5705 5707 5709 5711 5714 5716 5719 5721 5724 5725 5727 5729 5730 5731 5731 5732 5732 5731 5731 5731 5730 5729 5727 5726 5724 5722 5719 5716 5713 5710 5706 5701 5697 5692 5687 5681
5691 5693 5694 5696 5697 5698 5700 5702 5704 5706 5708 5711 5713 5716 5719 5721 5723 5725 5727 5729 5730 5731 5731 5732 5732 5732 5731 5731 5730 5729 5727 5725 5723 5721 5719 5716 5712 5708 5704 5700 5695 5690 5685 5679
5688 5690 5691 5693 5695 5697 5699 5701 5703 5705 5707 5710 5713 5715 5718 5720 5723 5725 5727 5729 5730 5731 5731 5732 5732 5732 5731 5731 5730 5729 5727 5725 5723 5721 5718 5715 5711 5707 5703 5698 5693 5688 5683 5677
5684 5686 5688 5691 5693 5695 5698 5700 5702 5704 5707 5709 5712 5715 5718 5720 5723 5725 5727 5728 5730 5731 5731 5732 5732 5731 5731 5730 5730 5728 5727 5725 5723 5720 5717 5714 5710 5706 5701 5697 5692 5686 5680 5674
5681 5683 5686 5689 5691 5694 5696 5699 5701 5703 5706 5709 5711 5714 5717 5720 5722 5725 5727 5728 5730 5731 5731 5732 5731 5731 5731 5730 5729 5728 5726 5724 5722 5719 5716 5712 5709 5704 5700 5695 5690 5684 5678 5672
5679 5681 5684 5687 5690 5692 5695 5698 5700 5703 5706 5708 5711 5714 5717 5720 5722 5724 5726 5728 5729 5730 5731 5731 5731 5731 5730 5729 5728 5727 5725 5723 5721 5718 5715 5711 5707 5703 5698 5693 5688 5682 5676 5670
5676 5679 5683 5686 5689 5692 5695 5698 5700 5703 5705 5708 5711 5714 5717 5720 5722 5724 5726 5728 5729 5730 5730 5731 5731 5730 5729 5728 5727 5726 5724 5722 5719 5716 5713 5710 5705 5701 5696 5691 5686 5680 5674 5667